This is the latest recevied weather packets stored in our database for station/object I1SXT-13. If no packets are shown the sender has not sent any weather packets the latest 10 day(s).
| Time | Temp. | Humidity | Pressure | Rain* | Wind** | Luminosity | Snow |
|---|---|---|---|---|---|---|---|
| 1778074766 | 20.56° C | 75% | 1010.4 hPa | 33.02 mm | - | - | - |
| 1778074469 | 20.56° C | 75% | 1010.4 hPa | 33.02 mm | - | - | - |
| 1778074165 | 20° C | 76% | 1010.2 hPa | 33.02 mm | - | - | - |
| 1778073867 | 19.44° C | 78% | 1009.9 hPa | 33.02 mm | - | - | - |
| 1778073563 | 19.44° C | 78% | 1010 hPa | 33.02 mm | - | - | - |
| 1778073266 | 19.44° C | 80% | 1009.7 hPa | 33.02 mm | - | - | - |
| 1778072969 | 18.89° C | 81% | 1010 hPa | 33.02 mm | - | - | - |
| 1778072665 | 18.89° C | 81% | 1010.1 hPa | 33.02 mm | - | - | - |
| 1778072368 | 18.33° C | 82% | 1010.2 hPa | 33.02 mm | - | - | - |
| 1778072064 | 19.44° C | 78% | 1009.8 hPa | 33.02 mm | - | - | - |
| 1778071767 | 18.33° C | 81% | 1009.7 hPa | 33.02 mm | - | - | - |
| 1778071469 | 18.89° C | 81% | 1009.9 hPa | 33.02 mm | - | - | - |
| 1778071165 | 18.89° C | 80% | 1010 hPa | 33.02 mm | - | - | - |
| 1778070868 | 18.89° C | 80% | 1009.8 hPa | 33.02 mm | - | - | - |
| 1778070565 | 18.89° C | 79% | 1009.9 hPa | 33.02 mm | - | - | - |
| 1778070267 | 18.89° C | 80% | 1009.9 hPa | 33.02 mm | - | - | - |
| 1778069666 | 18.33° C | 80% | 1010 hPa | 33.02 mm | - | - | - |
| 1778069369 | 18.33° C | 79% | 1009.7 hPa | 33.02 mm | - | - | - |
| 1778069065 | 18.33° C | 79% | 1010 hPa | 33.02 mm | - | - | - |
| 1778068767 | 18.33° C | 77% | 1009.9 hPa | 33.02 mm | - | - | - |
| 1778068463 | 18.89° C | 78% | 1009.9 hPa | 33.02 mm | - | - | - |
| 1778068166 | 18.89° C | 76% | 1010.4 hPa | 33.02 mm | - | - | - |
| 1778067869 | 19.44° C | 79% | 1009.4 hPa | 33.02 mm | - | - | - |
| 1778067565 | 19.44° C | 79% | 1009.8 hPa | 33.02 mm | - | - | - |
| 1778066964 | 18.89° C | 82% | 1009.7 hPa | 33.02 mm | - | - | - |
* Rain since midnight (hover to see other rain measurements)
** Current wind speed in m/s (hover to see current wind gust speed)